Location: Brno
(49.2000°N, 16.6330°E)
Time: 09:58:41
(UTC+01:00)

Iridium 2 - Visible Passes

Search period start: 25 February 2017 00:00
Search period end: 07 March 2017 00:00
Orbit: 510 x 525 km, 85.5° (Epoch: 24 February)

Date Brightness Start Highest point End Pass type
(mag) Time Alt. Az. Time Alt. Az. Time Alt. Az.
28 Feb 6.0 19:38:57 13° NNE 19:38:57 13° NNE 19:39:29 10° NNE visible
28 Feb 7.0 21:13:55 11° NNW 21:13:55 11° NNW 21:14:05 10° NNW visible
01 Mar 5.3 19:23:25 20° NE 19:23:25 20° NE 19:24:54 10° NNE visible
01 Mar 6.5 20:58:22 17° NW 20:58:22 17° NW 20:59:52 10° NNW visible
02 Mar 4.6 19:07:25 27° ENE 19:07:25 27° ENE 19:10:18 10° NNE visible
02 Mar 5.9 20:42:19 25° WNW 20:42:24 25° WNW 20:45:36 10° NNW visible
03 Mar 4.8 18:50:08 13° SE 18:52:35 23° E 18:55:38 10° NNE visible
03 Mar 5.6 20:24:49 12° SW 20:27:53 30° WNW 20:31:16 10° NNW visible
04 Mar 5.0 18:35:25 10° SE 18:38:11 19° E 18:40:56 10° NE visible
04 Mar 5.2 20:09:48 10° SSW 20:13:21 36° WNW 20:16:54 10° N visible
05 Mar 5.3 18:21:24 10° ESE 18:23:46 16° E 18:26:09 10° NE visible
05 Mar 4.8 19:55:10 10° SSW 19:58:50 44° W 20:02:30 10° N visible
06 Mar 6.7 05:46:58 10° NNE 05:49:54 21° ENE 05:52:50 10° SE visible
06 Mar 4.4 19:40:35 10° SSW 19:44:19 55° W 19:48:04 10° N visible
